Regional Weather Roundup
Issued by NWS Green Bay, WI

Home | Current Version | Previous Version | Graphics & Text | Print | Product List | Glossary Off
Versions: 1 2 3 4 5 6 7 8 9 10 11 12 13 14 15 16 17 18 19 20 21 22 23 24 25 26 27 28 29 30 31 32 33 34 35 36 37 38 39 40 41 42 43 44 45 46 47 48 49 50

000
ASUS43 KGRB 241100
RWRGRB

NORTH-CENTRAL AND NORTHEAST WISCONSIN REGIONAL WEATHER ROUNDUP
NATIONAL WEATHER SERVICE GREEN BAY WI
500 AM CST SAT FEB 24 2018

WIZ005-009-010>012-018-019-241200-
NORTH CENTRAL WISCONSIN

CITY           SKY/WX    TMP DP  RH WIND       PRES   REMARKS
IRONWOOD       FOG        6   4  91 CALM      30.18F VSB 1/4
MANITOWISH WTR NOT AVBL
ARBOR VITAE    NOT AVBL
EAGLE RIVER    FAIR       5   1  84 CALM      30.16S
LAND O LAKES   FAIR       6   3  87 CALM      30.18S FOG
RHINELANDER    FOG        6   5  95 CALM      30.18S VSB 1/2
PHILLIPS       NOT AVBL
ANTIGO         NOT AVBL
TOMAHAWK       NOT AVBL
MERRILL        FOG       11   9  92 CALM      30.21F VSB 1/2
$$

WIZ013-073-241200-
NORTHEAST WISCONSIN

CITY           SKY/WX    TMP DP  RH WIND       PRES   REMARKS
IRON MOUNTAIN  CLOUDY    23  18  81 CALM      30.20R
MARINETTE      CLOUDY    30  25  81 CALM      30.25F
$$

WIZ017-030-035>037-045-241200-
CENTRAL WISCONSIN

CITY           SKY/WX    TMP DP  RH WIND       PRES   REMARKS
MEDFORD        NOT AVBL
WAUSAU         FOG       18  16  92 NW3       30.20F VSB 1/2
MOSINEE        NOT AVBL
MARSHFIELD     FOG       16  13  88 CALM      30.18F VSB<1/4
WISC RAPIDS    FAIR      17  12  80 CALM      30.22F HAZE
STEVENS POINT  NOT AVBL
WAUPACA        NOT AVBL
SHAWANO        MOCLDY    28  23  81 CALM      30.24S
CLINTONVILLE   FAIR      25  21  84 CALM      30.23F
WAUTOMA        FAIR      20  19  96 CALM        N/A  FOG
$$

WIZ038-039-048-051-241200-
FOX VALLEY

CITY           SKY/WX    TMP DP  RH WIND       PRES   REMARKS
NWS GREEN BAY  CLOUDY    30  23  75 CALM      30.24S
APPLETON       NOT AVBL
OSHKOSH        FAIR      25  21  85 CALM      30.23S
FOND DU LAC    CLOUDY    29  21  72 NE5       30.23S
$$

WIZ022-050-052-241200-
EAST CENTRAL WISCONSIN

CITY           SKY/WX    TMP DP  RH WIND       PRES   REMARKS
EPHRAIM        NOT AVBL
WASHINGTON ISL NOT AVBL
STURGEON BAY   CLOUDY    30  23  75 N3        30.25F
MANITOWOC      CLOUDY    30  23  75 CALM      30.26S
SHEBOYGAN      CLOUDY    29  23  78 N3        30.25R
$$

LMZ563-521-522-541>543-241200-
LAKESHORE

STATION/POSITION TIME  TEMP    WIND        PRES    VSBY  WAVE
                       AIR SEA DIR/SP/G                  HT/PER
                 (UTC) (F)     (DEG/KT/KT) (MB)    (MI)  (FT/S)
SHEBOYGAN LKSHOR 1000   31     350/ 10/ 11 1024.5F
KEWAUNEE LKSHORE 1030   31     350/  3/  4 1023.5F
NORTHPORT PIER   1040   31                 1024.0F
MENOMINEE LKSHOR 1030   31     320/  1/  2 1023.8F
$$




USA.gov is the U.S. government's official web portal to all federal, state and local government web resources and services.